When you browse on this site, cookies collect data to enhance your experience and personalize the content and advertising you see.
Visit our Privacy Policy to learn more. By continuing to use the site, you agree to this use of cookies and data.
EN

Hourly Weather Bolshoe Afanasovo

Today, 12 August, Wednesday

Time Temperature Precipitation Wind Pressure Humidity
00:00 +13°C° 0 mm 1 mps 750 mmHg 87%
01:00 +13°C° 0 mm 1 mps 750 mmHg 87%
02:00 +12°C° 0 mm 1 mps 750 mmHg 88%
03:00 +12°C° 0 mm 1 mps 750 mmHg 89%
04:00 +13°C° 0 mm 1 mps 750 mmHg 87%
05:00 +14°C° 0 mm 1 mps 750 mmHg 85%
06:00 +14°C° 0 mm 1 mps 750 mmHg 83%
07:00 +16°C° 0 mm 1 mps 750 mmHg 77%
08:00 +18°C° 0 mm 1 mps 750 mmHg 72%
09:00 +18°C° 0 mm 2 mps 750 mmHg 67%
10:00 +19°C° 0 mm 2 mps 750 mmHg 63%
11:00 +20°C° 0 mm 2 mps 751 mmHg 60%
12:00 +21°C° 0 mm 2 mps 751 mmHg 56%
13:00 +22°C° 0 mm 1 mps 751 mmHg 55%
14:00 +22°C° 0 mm 1 mps 750 mmHg 55%
15:00 +22°C° 0 mm 1 mps 750 mmHg 54%
16:00 +20°C° 0 mm 2 mps 750 mmHg 60%
17:00 +20°C° 0 mm 2 mps 750 mmHg 66%
18:00 +19°C° 0 mm 2 mps 750 mmHg 71%
19:00 +17°C° 0 mm 2 mps 750 mmHg 73%
20:00 +16°C° 0 mm 2 mps 751 mmHg 75%
21:00 +15°C° 0 mm 2 mps 751 mmHg 77%
22:00 +14°C° 0 mm 2 mps 751 mmHg 78%
23:00 +14°C° 0 mm 2 mps 751 mmHg 79%

Tomorrow, 13 August, Thursday

Time Temperature Precipitation Wind Pressure Humidity
00:00 +13°C° 0 mm 2 mps 751 mmHg 80%
01:00 +13°C° 0 mm 2 mps 751 mmHg 81%
02:00 +13°C° 0 mm 2 mps 751 mmHg 81%
03:00 +12°C° 0 mm 2 mps 751 mmHg 81%
04:00 +12°C° 0 mm 3 mps 751 mmHg 81%
05:00 +12°C° 0 mm 3 mps 751 mmHg 81%
06:00 +13°C° 0 mm 4 mps 751 mmHg 80%
07:00 +14°C° 0 mm 4 mps 750 mmHg 77%
08:00 +15°C° 0 mm 4 mps 750 mmHg 74%
09:00 +17°C° 0 mm 4 mps 750 mmHg 71%
10:00 +17°C° 0.1 mm 3 mps 750 mmHg 74%
11:00 +16°C° 0.1 mm 3 mps 750 mmHg 77%
12:00 +16°C° 0.1 mm 2 mps 750 mmHg 80%
13:00 +16°C° 0.2 mm 3 mps 749 mmHg 81%
14:00 +16°C° 0.2 mm 3 mps 749 mmHg 82%
15:00 +16°C° 0.2 mm 3 mps 749 mmHg 83%
16:00 +15°C° 0 mm 4 mps 749 mmHg 82%
17:00 +15°C° 0 mm 4 mps 748 mmHg 82%
18:00 +15°C° 0 mm 4 mps 748 mmHg 82%
19:00 +15°C° 0 mm 4 mps 748 mmHg 81%
20:00 +15°C° 0 mm 5 mps 748 mmHg 81%
21:00 +14°C° 0 mm 5 mps 747 mmHg 81%
22:00 +14°C° 0 mm 5 mps 747 mmHg 80%
23:00 +14°C° 0 mm 5 mps 747 mmHg 80%

Day after tomorrow, 14 August, Friday

Time Temperature Precipitation Wind Pressure Humidity
00:00 +13°C° 0 mm 5 mps 747 mmHg 80%
01:00 +13°C° 0 mm 5 mps 747 mmHg 80%
02:00 +13°C° 0 mm 5 mps 746 mmHg 80%
03:00 +12°C° 0 mm 5 mps 746 mmHg 81%
04:00 +12°C° 0.1 mm 5 mps 746 mmHg 82%
05:00 +12°C° 0.1 mm 5 mps 746 mmHg 84%
06:00 +12°C° 0.1 mm 4 mps 746 mmHg 86%
07:00 +13°C° 0.1 mm 4 mps 745 mmHg 86%
08:00 +13°C° 0.1 mm 4 mps 745 mmHg 86%
09:00 +14°C° 0.1 mm 4 mps 745 mmHg 85%
10:00 +14°C° 0.1 mm 4 mps 745 mmHg 85%
11:00 +15°C° 0.1 mm 4 mps 745 mmHg 85%
12:00 +15°C° 0.1 mm 4 mps 745 mmHg 85%
13:00 +17°C° 0.6 mm 4 mps 745 mmHg 83%
14:00 +18°C° 0.6 mm 3 mps 745 mmHg 82%
15:00 +19°C° 0.6 mm 3 mps 745 mmHg 80%
16:00 +19°C° 0.9 mm 3 mps 744 mmHg 81%
17:00 +18°C° 0.9 mm 3 mps 744 mmHg 82%
18:00 +18°C° 0.9 mm 2 mps 744 mmHg 84%
19:00 +17°C° 0.5 mm 2 mps 744 mmHg 87%
20:00 +16°C° 0.5 mm 2 mps 744 mmHg 90%
21:00 +15°C° 0.5 mm 2 mps 744 mmHg 93%
22:00 +14°C° 0.8 mm 3 mps 744 mmHg 94%
23:00 +14°C° 0.8 mm 3 mps 744 mmHg 95%

15 August, Saturday

Time Temperature Precipitation Wind Pressure Humidity
00:00 +14°C° 0.8 mm 3 mps 744 mmHg 97%
01:00 +14°C° 0.4 mm 3 mps 744 mmHg 97%
02:00 +14°C° 0.4 mm 3 mps 744 mmHg 97%
03:00 +14°C° 0.4 mm 4 mps 745 mmHg 97%
04:00 +14°C° 0.4 mm 4 mps 745 mmHg 96%
05:00 +13°C° 0.4 mm 4 mps 745 mmHg 96%
06:00 +13°C° 0.4 mm 3 mps 745 mmHg 95%
07:00 +13°C° 0.2 mm 3 mps 745 mmHg 94%
08:00 +14°C° 0.2 mm 3 mps 745 mmHg 93%
09:00 +14°C° 0.2 mm 3 mps 745 mmHg 92%
10:00 +14°C° 0.3 mm 3 mps 745 mmHg 93%
11:00 +14°C° 0.3 mm 3 mps 745 mmHg 93%
12:00 +14°C° 0.3 mm 3 mps 745 mmHg 93%
13:00 +14°C° 0.2 mm 3 mps 745 mmHg 93%
14:00 +14°C° 0.2 mm 3 mps 745 mmHg 92%
15:00 +14°C° 0.2 mm 4 mps 745 mmHg 92%
16:00 +14°C° 0 mm 4 mps 745 mmHg 92%
17:00 +14°C° 0 mm 4 mps 745 mmHg 93%
18:00 +13°C° 0 mm 4 mps 745 mmHg 93%
19:00 +13°C° 0 mm 4 mps 745 mmHg 94%
20:00 +13°C° 0 mm 3 mps 745 mmHg 95%
21:00 +13°C° 0 mm 3 mps 745 mmHg 96%
22:00 +13°C° 0 mm 4 mps 745 mmHg 95%
23:00 +13°C° 0 mm 4 mps 745 mmHg 95%

16 August, Sunday

Time Temperature Precipitation Wind Pressure Humidity
00:00 +13°C° 0 mm 4 mps 745 mmHg 94%
01:00 +13°C° 0 mm 4 mps 745 mmHg 94%
02:00 +13°C° 0 mm 4 mps 746 mmHg 94%
03:00 +13°C° 0 mm 4 mps 746 mmHg 94%
04:00 +13°C° 0 mm 4 mps 746 mmHg 93%
05:00 +12°C° 0 mm 4 mps 746 mmHg 93%
06:00 +12°C° 0 mm 5 mps 746 mmHg 92%
07:00 +13°C° 0 mm 5 mps 746 mmHg 90%
08:00 +13°C° 0 mm 4 mps 746 mmHg 89%
09:00 +13°C° 0 mm 4 mps 747 mmHg 87%
10:00 +14°C° 0 mm 5 mps 747 mmHg 86%
11:00 +14°C° 0 mm 5 mps 747 mmHg 84%
12:00 +15°C° 0 mm 5 mps 747 mmHg 82%
13:00 +15°C° 0 mm 5 mps 747 mmHg 81%
14:00 +15°C° 0 mm 5 mps 747 mmHg 80%
15:00 +15°C° 0 mm 5 mps 747 mmHg 78%
16:00 +15°C° 0 mm 4 mps 747 mmHg 80%
17:00 +14°C° 0 mm 4 mps 748 mmHg 82%
18:00 +14°C° 0 mm 3 mps 748 mmHg 85%
19:00 +13°C° 0 mm 3 mps 748 mmHg 86%
20:00 +12°C° 0 mm 3 mps 748 mmHg 88%
21:00 +12°C° 0 mm 3 mps 748 mmHg 90%
22:00 +11°C° 0 mm 3 mps 748 mmHg 91%
23:00 +11°C° 0 mm 3 mps 748 mmHg 92%

17 August, Monday

Time Temperature Precipitation Wind Pressure Humidity
00:00 +11°C° 0 mm 3 mps 748 mmHg 94%
01:00 +10°C° 0 mm 2 mps 748 mmHg 94%
02:00 +10°C° 0 mm 2 mps 748 mmHg 95%
03:00 +9°C° 0 mm 2 mps 748 mmHg 96%
04:00 +10°C° 0 mm 2 mps 749 mmHg 94%
05:00 +10°C° 0 mm 2 mps 749 mmHg 92%
06:00 +10°C° 0 mm 2 mps 749 mmHg 91%
07:00 +13°C° 0 mm 2 mps 749 mmHg 85%
08:00 +14°C° 0 mm 2 mps 749 mmHg 79%
09:00 +16°C° 0 mm 2 mps 749 mmHg 73%
10:00 +17°C° 0 mm 2 mps 749 mmHg 69%
11:00 +19°C° 0 mm 1 mps 749 mmHg 65%
12:00 +20°C° 0 mm 1 mps 749 mmHg 61%
13:00 +19°C° 0 mm 2 mps 749 mmHg 61%
14:00 +20°C° 0 mm 2 mps 749 mmHg 61%
15:00 +20°C° 0 mm 2 mps 749 mmHg 61%
16:00 +19°C° 0 mm 2 mps 748 mmHg 66%
17:00 +18°C° 0 mm 3 mps 748 mmHg 70%
18:00 +17°C° 0 mm 3 mps 748 mmHg 75%
19:00 +16°C° 0 mm 2 mps 748 mmHg 78%
20:00 +15°C° 0 mm 2 mps 748 mmHg 82%
21:00 +13°C° 0 mm 1 mps 748 mmHg 85%
22:00 +13°C° 0.1 mm 1 mps 748 mmHg 87%
23:00 +12°C° 0.1 mm 1 mps 748 mmHg 90%
Show more